| time (UTC) | temp C | wind direction | speed KPH | gust KPH | rain 1hr cm | rain 24hr cm | rain mn cm | humidity % | barometer mb |
| 20260831233802 | 37 | 182 | 8.0 | 16.1 | 0.00 | 0.00 | 0.00 | 32 | 1012.6 |
| 20260831232738 | 37 | 182 | 8.0 | 16.1 | 0.00 | 0.00 | 0.00 | 31 | 1012.5 |
| 20260831230603 | 37 | 159 | 9.7 | 17.7 | 0.00 | 0.00 | 0.00 | 31 | 1012.6 |
| 20260831224401 | 38 | 167 | 4.8 | 12.9 | 0.00 | 0.00 | 0.00 | 31 | 1012.6 |
| 20260831223347 | 38 | 120 | 6.4 | 16.1 | 0.00 | 0.00 | 0.00 | 31 | 1012.7 |
| 20260831222356 | 38 | 121 | 6.4 | 20.9 | 0.00 | 0.00 | 0.00 | 30 | 1012.7 |
| 20260831221402 | 38 | 155 | 8.0 | 20.9 | 0.00 | 0.00 | 0.00 | 31 | 1012.7 |
| 20260831220343 | 38 | 170 | 9.7 | 20.9 | 0.00 | 0.00 | 0.00 | 30 | 1012.8 |
| 20260831215401 | 38 | 161 | 3.2 | 17.7 | 0.00 | 0.00 | 0.00 | 31 | 1012.8 |
| 20260831214408 | 37 | 204 | 4.8 | 12.9 | 0.00 | 0.00 | 0.00 | 32 | 1013.0 |
| 20260831213344 | 36 | 195 | 4.8 | 17.7 | 0.00 | 0.00 | 0.00 | 32 | 1013.1 |
| 20260831211243 | 37 | 144 | 6.4 | 17.7 | 0.00 | 0.00 | 0.00 | 31 | 1013.3 |
| 20260831210250 | 37 | 130 | 0.0 | 3.2 | 0.00 | 0.00 | 0.00 | 32 | 1013.4 |
| 20260831205258 | 38 | 136 | 3.2 | 22.5 | 0.00 | 0.00 | 0.00 | 31 | 1013.5 |
| 20260831204253 | 38 | 157 | 9.7 | 22.5 | 0.00 | 0.00 | 0.00 | 31 | 1013.7 |
| 20260831203315 | 38 | 187 | 11.3 | 20.9 | 0.00 | 0.00 | 0.00 | 32 | 1013.9 |
| 20260831202326 | 38 | 193 | 9.7 | 27.4 | 0.00 | 0.00 | 0.00 | 31 | 1014.0 |
| 20260831200143 | 37 | 144 | 6.4 | 16.1 | 0.00 | 0.00 | 0.00 | 34 | 1014.2 |
| 20260831195145 | 37 | 144 | 4.8 | 20.9 | 0.00 | 0.00 | 0.00 | 32 | 1014.4 |
| 20260831194122 | 37 | 123 | 11.3 | 20.9 | 0.00 | 0.00 | 0.00 | 29 | 1014.6 |
| 20260831193143 | 37 | 153 | 1.6 | 16.1 | 0.00 | 0.00 | 0.00 | 35 | 1014.7 |
| 20260831192132 | 37 | 233 | 4.8 | 17.7 | 0.00 | 0.00 | 0.00 | 34 | 1014.8 |
| 20260831191107 | 37 | 188 | 4.8 | 19.3 | 0.00 | 0.00 | 0.00 | 35 | 1014.8 |
| 20260831190042 | 37 | 234 | 9.7 | 20.9 | 0.00 | 0.00 | 0.00 | 36 | 1014.9 |
| 20260831185050 | 37 | 170 | 4.8 | 30.6 | 0.00 | 0.00 | 0.00 | 37 | 1014.9 |
| 20260831184030 | 37 | 155 | 9.7 | 30.6 | 0.00 | 0.00 | 0.00 | 36 | 1015.2 |
| 20260831181949 | 36 | 155 | 6.4 | 24.1 | 0.00 | 0.00 | 0.00 | 38 | 1015.5 |
| 20260831181013 | 36 | 181 | 8.0 | 22.5 | 0.00 | 0.00 | 0.00 | 38 | 1015.6 |
| 20260831175958 | 36 | 234 | 6.4 | 17.7 | 0.00 | 0.00 | 0.00 | 40 | 1015.8 |
| 20260831175007 | 36 | 182 | 6.4 | 22.5 | 0.00 | 0.00 | 0.00 | 39 | 1015.9 |
| 20260831173939 | 36 | 214 | 11.3 | 27.4 | 0.00 | 0.00 | 0.00 | 41 | 1016.0 |
| 20260831172938 | 35 | 232 | 9.7 | 27.4 | 0.00 | 0.00 | 0.00 | 42 | 1016.2 |
| 20260831171948 | 35 | 178 | 9.7 | 27.4 | 0.00 | 0.00 | 0.00 | 43 | 1016.2 |
| 20260831170927 | 35 | 221 | 11.3 | 20.9 | 0.00 | 0.00 | 0.00 | 42 | 1016.4 |
| 20260831165922 | 35 | 201 | 8.0 | 17.7 | 0.00 | 0.00 | 0.00 | 44 | 1016.4 |
| 20260831164936 | 34 | 242 | 9.7 | 24.1 | 0.00 | 0.00 | 0.00 | 45 | 1016.4 |
| 20260831162820 | 34 | 219 | 8.0 | 19.3 | 0.00 | 0.00 | 0.00 | 46 | 1016.5 |
| 20260831161831 | 33 | 215 | 8.0 | 16.1 | 0.00 | 0.00 | 0.00 | 46 | 1016.6 |
| 20260831160831 | 33 | 186 | 9.7 | 19.3 | 0.00 | 0.00 | 0.00 | 46 | 1016.5 |
| 20260831155823 | 32 | 208 | 11.3 | 22.5 | 0.00 | 0.00 | 0.00 | 45 | 1016.6 |
| 20260831154816 | 32 | 202 | 9.7 | 22.5 | 0.00 | 0.00 | 0.00 | 46 | 1016.6 |
| 20260831153828 | 32 | 191 | 11.3 | 19.3 | 0.00 | 0.00 | 0.00 | 47 | 1016.5 |
| 20260831152823 | 31 | 231 | 4.8 | 16.1 | 0.00 | 0.00 | 0.00 | 52 | 1016.5 |
| 20260831150614 | 30 | 202 | 6.4 | 16.1 | 0.00 | 0.00 | 0.00 | 57 | 1016.4 |
| 20260831145543 | 30 | 173 | 6.4 | 14.5 | 0.00 | 0.00 | 0.00 | 59 | 1016.5 |
| 20260831144554 | 30 | 172 | 6.4 | 14.5 | 0.00 | 0.00 | 0.00 | 60 | 1016.4 |
| 20260831143557 | 29 | 221 | 6.4 | 14.5 | 0.00 | 0.00 | 0.00 | 62 | 1016.4 |
| 20260831142603 | 29 | 190 | 4.8 | 16.1 | 0.00 | 0.00 | 0.00 | 64 | 1016.4 |
| 20260831141607 | 28 | 205 | 8.0 | 16.1 | 0.00 | 0.00 | 0.00 | 66 | 1016.4 |
| 20260831135441 | 28 | 198 | 1.6 | 6.4 | 0.00 | 0.00 | 0.00 | 70 | 1016.5 |
| 20260831132116 | 25 | 127 | 0.0 | 1.6 | 0.00 | 0.00 | 0.00 | 77 | 1016.0 |
| 20260831131108 | 25 | 174 | 0.0 | 0.0 | 0.00 | 0.00 | 0.00 | 79 | 1015.9 |
| 20260831130034 | 23 | 134 | 0.0 | 0.0 | 0.00 | 0.00 | 0.00 | 80 | 1015.8 |
| 20260831125036 | 23 | 134 | 0.0 | 1.6 | 0.00 | 0.00 | 0.00 | 81 | 1015.7 |
| 20260831124023 | 23 | 147 | 0.0 | 0.0 | 0.00 | 0.00 | 0.00 | 82 | 1015.5 |
| 20260831123009 | 22 | 148 | 0.0 | 0.0 | 0.00 | 0.00 | 0.00 | 82 | 1015.4 |
| 20260831121947 | 22 | 148 | 0.0 | 0.0 | 0.00 | 0.00 | 0.00 | 81 | 1015.2 |
| 20260831121011 | 22 | 148 | 0.0 | 0.0 | 0.00 | 0.00 | 0.00 | 81 | 1015.0 |
| 20260831120006 | 22 | 148 | 0.0 | 0.0 | 0.00 | 0.00 | 0.00 | 80 | 1014.8 |
| 20260831114957 | 22 | 148 | 0.0 | 0.0 | 0.00 | 0.00 | 0.00 | 79 | 1014.7 |
| 20260831114023 | 22 | 148 | 0.0 | 0.0 | 0.00 | 0.00 | 0.00 | 78 | 1014.6 |
| 20260831113048 | 23 | 148 | 0.0 | 0.0 | 0.00 | 0.00 | 0.00 | 78 | 1014.6 |
| 20260831112020 | 23 | 148 | 0.0 | 0.0 | 0.00 | 0.00 | 0.00 | 76 | 1014.6 |
| 20260831111005 | 23 | 148 | 0.0 | 0.0 | 0.00 | 0.00 | 0.00 | 75 | 1014.4 |
| 20260831110028 | 23 | 148 | 0.0 | 0.0 | 0.00 | 0.00 | 0.00 | 75 | 1014.4 |
| 20260831105043 | 23 | 148 | 0.0 | 0.0 | 0.00 | 0.00 | 0.00 | 74 | 1014.3 |
| 20260831104035 | 24 | 148 | 0.0 | 0.0 | 0.00 | 0.00 | 0.00 | 74 | 1014.2 |
| 20260831101907 | 24 | 153 | 0.0 | 0.0 | 0.00 | 0.00 | 0.00 | 73 | 1014.2 |
| 20260831100858 | 24 | 157 | 0.0 | 4.8 | 0.00 | 0.00 | 0.00 | 73 | 1014.1 |
| 20260831095844 | 24 | 132 | 0.0 | 3.2 | 0.00 | 0.00 | 0.00 | 72 | 1014.2 |
| 20260831094900 | 24 | 132 | 0.0 | 3.2 | 0.00 | 0.00 | 0.00 | 72 | 1014.2 |
| 20260831093832 | 25 | 132 | 0.0 | 4.8 | 0.00 | 0.00 | 0.00 | 71 | 1014.1 |
| 20260831092829 | 25 | 128 | 0.0 | 0.0 | 0.00 | 0.00 | 0.00 | 70 | 1014.1 |
| 20260831090742 | 25 | 128 | 0.0 | 1.6 | 0.00 | 0.00 | 0.00 | 69 | 1014.0 |
| 20260831085738 | 25 | 125 | 0.0 | 4.8 | 0.00 | 0.00 | 0.00 | 69 | 1014.0 |
| 20260831084732 | 25 | 140 | 1.6 | 6.4 | 0.00 | 0.00 | 0.00 | 69 | 1013.8 |
| 20260831083747 | 25 | 128 | 3.2 | 9.7 | 0.00 | 0.00 | 0.00 | 69 | 1013.8 |
| 20260831082807 | 25 | 130 | 1.6 | 9.7 | 0.00 | 0.00 | 0.00 | 70 | 1013.7 |
| 20260831081750 | 25 | 126 | 0.0 | 4.8 | 0.00 | 0.00 | 0.00 | 70 | 1013.7 |
| 20260831080815 | 25 | 138 | 0.0 | 0.0 | 0.00 | 0.00 | 0.00 | 71 | 1013.6 |
| 20260831075745 | 25 | 138 | 0.0 | 0.0 | 0.00 | 0.00 | 0.00 | 70 | 1013.5 |
| 20260831074810 | 25 | 138 | 0.0 | 0.0 | 0.00 | 0.00 | 0.00 | 70 | 1013.3 |
| 20260831072727 | 24 | 98 | 0.0 | 0.0 | 0.00 | 0.00 | 0.00 | 71 | 1013.4 |
| 20260831071703 | 24 | 99 | 0.0 | 4.8 | 0.00 | 0.00 | 0.00 | 72 | 1013.5 |
| 20260831070701 | 24 | 85 | 0.0 | 3.2 | 0.00 | 0.00 | 0.00 | 74 | 1013.5 |
| 20260831063443 | 23 | 169 | 0.0 | 0.0 | 0.00 | 0.00 | 0.00 | 76 | 1013.5 |
| 20260831062414 | 23 | 169 | 0.0 | 0.0 | 0.00 | 0.00 | 0.00 | 75 | 1013.5 |
| 20260831061359 | 23 | 169 | 0.0 | 0.0 | 0.00 | 0.00 | 0.00 | 74 | 1013.4 |
| 20260831055321 | 24 | 169 | 0.0 | 0.0 | 0.00 | 0.00 | 0.00 | 73 | 1013.5 |
| 20260831054308 | 24 | 169 | 0.0 | 0.0 | 0.00 | 0.00 | 0.00 | 73 | 1013.5 |
| 20260831053239 | 24 | 169 | 0.0 | 0.0 | 0.00 | 0.00 | 0.00 | 71 | 1013.4 |
| 20260831052259 | 25 | 169 | 0.0 | 0.0 | 0.00 | 0.00 | 0.00 | 70 | 1013.4 |
| 20260831051306 | 25 | 169 | 0.0 | 0.0 | 0.00 | 0.00 | 0.00 | 69 | 1013.3 |
| 20260831044014 | 25 | 169 | 0.0 | 0.0 | 0.00 | 0.00 | 0.00 | 66 | 1013.2 |
| 20260831043034 | 25 | 169 | 0.0 | 0.0 | 0.00 | 0.00 | 0.00 | 64 | 1013.2 |
| 20260831042047 | 25 | 169 | 0.0 | 0.0 | 0.00 | 0.00 | 0.00 | 63 | 1013.2 |
| 20260831041051 | 26 | 169 | 0.0 | 0.0 | 0.00 | 0.00 | 0.00 | 64 | 1013.1 |
| 20260831040042 | 26 | 169 | 0.0 | 0.0 | 0.00 | 0.00 | 0.00 | 63 | 1013.2 |
| 20260831035027 | 26 | 169 | 0.0 | 0.0 | 0.00 | 0.00 | 0.00 | 62 | 1013.1 |
| 20260831034043 | 26 | 169 | 0.0 | 0.0 | 0.00 | 0.00 | 0.00 | 61 | 1013.0 |
| 20260831033034 | 27 | 169 | 0.0 | 0.0 | 0.00 | 0.00 | 0.00 | 61 | 1013.0 |
| 20260831032022 | 27 | 169 | 0.0 | 0.0 | 0.00 | 0.00 | 0.00 | 59 | 1013.0 |
| 20260831030956 | 27 | 169 | 0.0 | 0.0 | 0.00 | 0.00 | 0.00 | 56 | 1013.0 |
| 20260831025958 | 27 | 169 | 0.0 | 0.0 | 0.00 | 0.00 | 0.00 | 56 | 1012.8 |
| 20260831024946 | 27 | 169 | 0.0 | 4.8 | 0.00 | 0.00 | 0.00 | 56 | 1012.7 |
| 20260831024008 | 28 | 165 | 0.0 | 0.0 | 0.00 | 0.00 | 0.00 | 54 | 1012.6 |
| 20260831023002 | 28 | 165 | 0.0 | 1.6 | 0.00 | 0.00 | 0.00 | 53 | 1012.4 |
| 20260831022013 | 28 | 170 | 0.0 | 1.6 | 0.00 | 0.00 | 0.00 | 53 | 1012.4 |
| 20260831021013 | 30 | 186 | 0.0 | 0.0 | 0.00 | 0.00 | 0.00 | 50 | 1012.2 |
| 20260831020035 | 30 | 186 | 0.0 | 0.0 | 0.00 | 0.00 | 0.00 | 48 | 1012.1 |
| 20260831015001 | 30 | 186 | 0.0 | 0.0 | 0.00 | 0.00 | 0.00 | 47 | 1012.0 |
| 20260831014014 | 31 | 187 | 0.0 | 1.6 | 0.00 | 0.00 | 0.00 | 46 | 1011.9 |
| 20260831011932 | 32 | 195 | 0.0 | 0.0 | 0.00 | 0.00 | 0.00 | 43 | 1011.8 |
| 20260831010913 | 33 | 195 | 1.6 | 6.4 | 0.00 | 0.00 | 0.00 | 41 | 1011.7 |
| 20260831005859 | 34 | 184 | 0.0 | 6.4 | 0.00 | 0.00 | 0.00 | 39 | 1011.7 |
| 20260831004903 | 35 | 159 | 0.0 | 0.0 | 0.00 | 0.00 | 0.00 | 37 | 1011.6 |
| 20260831003858 | 35 | 159 | 0.0 | 4.8 | 0.00 | 0.00 | 0.00 | 36 | 1011.5 |
| 20260831002908 | 36 | 146 | 0.0 | 3.2 | 0.00 | 0.00 | 0.00 | 35 | 1011.5 |
| 20260830235633 | 37 | 184 | 4.8 | 12.9 | 0.00 | 0.00 | 0.00 | 33 | 1011.7 |
| 20260830234630 | 37 | 157 | 4.8 | 17.7 | 0.00 | 0.00 | 0.00 | 33 | 1011.8 |